SCP
0 0 0 0 0 0 0 0 0 0 0 0 0 0 0 0 0 0 0 0 0 0 0 0 1 1 0 0 0 0 0 1 1 2 3 1 4 4 2 1 1 1 1 1
0 0 0 0 0 0 0 0 0 0 0 0 0 0 0 0 0 0 0 0 0 0 0 0 1 0 0 0 0 0 0 0 0 0 1 1 3 3 2 2 2 1 1 1
0 0 0 0 0 0 0 0 0 0 0 0 0 0 0 0 0 0 0 0 0 0 0 0 0 0 0 0 0 0 0 0 1 1 2 2 1 1 2 2 2 2 2 2
0 -0 -0 0 0 0 0 0 0 0 0 0 0 0 0 0 0 0 0 0 0 0 0 0 1 1 1 0 0 0 0 1 0 0 1 2 1 1 1 2 1 0 0 0
0 0 0 0 0 0 0 0 0 0 0 0 0 0 0 0 0 0 0 0 0 0 0 0 2 1 1 0 0 0 0 0 0 -0 0 0 0 0 0 0 0 0 0 0
-0 0 -0 -0 0 0 -0 0 0 0 0 0 0 0 0 0 0 0 0 0 0 0 0 0 2 2 2 1 0 0 0 0 0 -0 0 0 0 0 0 0 0 0 0 0
0 -0 0 -0 0 0 0 0 0 0 0 0 0 0 0 0 0 0 0 0 0 0 0 3 3 2 1 0 0 0 0 0 0 0 0 0 0 0 0 0 0 0 0 0
0 0 0 -0 0 0 0 0 0 0 0 0 0 0 0 0 0 0 0 0 0 0 0 3 2 2 1 0 0 1 1 0 0 0 0 0 0 0 0 0 0 0 0 0
0 0 0 0 0 0 0 -0 0 0 0 0 0 0 0 0 0 0 0 0 0 0 4 3 3 3 1 0 1 0 0 0 0 0 0 0 0 0 0 0 0 0 0 0
0 0 0 0 0 0 0 0 0 0 0 0 0 0 0 0 0 0 0 0 1 3 3 4 3 2 1 0 0 0 0 0 0 0 0 0 0 0 0 0 0 0 0 0
0 0 0 0 0 0 0 0 0 0 0 0 0 0 0 0 0 0 0 1 2 2 3 2 0 0 0 0 0 0 0 0 0 0 0 0 0 0 0 0 0 0 0 0
-0 0 -0 0 0 0 0 -0 0 0 0 0 0 0 0 0 0 1 1 1 1 1 1 1 0 0 0 0 0 0 0 0 0 0 0 0 0 0 0 0 0 0 0 0
-0 0 -0 0 0 0 0 0 0 0 0 0 0 0 0 1 2 1 1 1 0 0 0 0 0 0 0 0 0 0 0 0 0 0 0 0 0 0 0 0 0 0 0 0
-0 0 0 0 0 0 0 0 0 0 0 0 0 0 0 1 2 1 1 0 0 0 0 0 0 0 0 0 0 0 0 0 0 0 0 0 0 0 0 0 0 0 0 0
0 -0 0 0 0 0 -0 0 0 0 0 0 0 0 0 0 0 0 0 0 0 0 0 0 0 0 0 0 0 0 0 0 0 0 0 0 0 0 0 0 0 0 0 0
0 -0 -0 0 0 0 -0 0 0 -0 -0 0 0 1 0 0 0 0 0 0 0 0 0 0 0 0 0 0 0 0 0 0 0 0 0 0 0 0 0 0 0 0 0 0
0 -0 -0 -0 0 0 0 0 0 0 -0 0 0 0 0 0 0 0 0 0 0 0 0 0 0 0 0 0 0 0 0 0 0 0 0 0 0 0 0 0 0 0 0 0
0 0 -0 -0 0 0 0 0 -0 0 0 0 0 0 0 0 0 0 0 0 0 0 0 0 0 0 0 0 0 0 0 0 0 0 0 0 0 0 0 0 0 0 0 0
0 0 0 -0 0 0 0 0 0 0 1 0 0 0 0 0 0 0 0 0 0 0 0 0 0 0 0 0 0 0 0 0 0 0 0 0 0 0 0 0 0 0 0 0
-0 0 0 0 0 0 0 0 0 0 0 0 0 0 0 0 0 0 0 0 0 0 0 0 0 0 0 0 0 0 0 0 0 0 0 0 0 0 0 0 0 0 0 0
-0 0 0 0 0 0 0 0 0 0 0 0 -0 0 0 0 0 0 0 0 0 0 0 0 0 0 0 0 0 0 0 0 0 0 0 0 0 0 0 0 0 0 0 0
0 0 0 0 0 0 0 0 0 0 0 0 0 0 -0 -0 0 0 0 0 0 0 0 0 0 0 0 0 0 0 0 0 0 0 0 0 0 0 0 0 0 0 0 0
0 0 0 0 0 0 0 0 0 0 0 0 -0 0 -0 0 0 0 0 0 0 0 0 0 0 0 0 0 0 0 0 0 0 0 0 0 0 0 0 0 0 0 0 0
0 0 0 0 0 0 0 0 0 0 0 0 0 -0 -0 -0 -0 0 0 0 0 0 0 0 0 0 0 0 0 0 0 0 0 0 0 0 0 0 0 0 0 0 0 0
0 0 0 0 0 0 -0 0 0 0 -0 -0 0 0 0 0 0 0 0 0 0 0 0 0 0 0 0 0 0 0 0 0 0 0 0 0 0 0 0 0 0 0 0 0
0 0 0 0 0 0 0 -0 0 -0 -0 -0 0 0 0 0 0 0 0 0 0 0 0 0 0 0 0 0 0 0 0 0 0 0 0 0 0 0 0 0 0 0 0 0
Wind_Speed_500mb
11 7 19 32 24 27 33 32 33 21 24 23 45 26 22 19 17 21 36 36 51 58 60 47 34 31 40 63 65 71 77 59 71 68 66 52 46 50 45 40 34 45 38 30
7 29 28 27 29 31 33 39 40 29 31 26 35 20 32 18 14 26 43 45 56 56 51 53 38 37 49 57 61 57 71 78 88 88 60 59 60 46 45 38 38 46 37 31
26 25 20 32 31 35 39 31 26 26 32 39 13 30 17 31 32 40 49 60 68 70 57 56 46 43 54 67 69 64 61 78 86 80 77 60 55 56 49 45 43 42 37 34
18 34 41 34 33 33 32 25 27 34 24 20 32 23 17 32 31 23 38 57 78 74 67 60 57 47 62 66 67 66 73 74 79 70 69 70 71 62 51 49 43 42 32 32
15 9 24 34 33 33 25 25 34 29 32 19 24 17 30 21 23 39 25 57 79 79 75 67 53 48 62 63 63 52 59 72 65 75 74 62 60 60 43 56 51 32 20 21
38 35 21 16 17 25 22 28 34 31 24 22 29 14 13 18 43 31 17 53 69 78 81 71 51 58 73 68 61 55 53 67 64 59 63 71 65 65 82 63 36 40 40 29
15 42 33 31 7 15 13 23 6 11 11 10 13 1 15 34 38 22 22 50 65 80 78 63 63 75 77 72 62 62 49 54 44 37 45 48 43 45 57 40 40 35 31 25
8 6 28 34 18 14 20 15 5 7 9 9 8 12 14 24 30 46 54 54 63 70 75 65 69 80 71 68 56 51 59 53 53 45 41 44 35 43 30 27 32 30 19 14
7 11 13 25 22 13 11 16 9 8 7 8 13 10 11 12 17 19 32 53 62 52 67 77 81 83 73 71 58 56 58 48 40 39 31 27 40 39 28 35 32 27 20 14
6 13 6 25 23 19 12 25 8 7 6 7 10 8 8 17 20 27 20 25 54 78 74 84 91 85 74 65 54 46 38 39 35 31 34 33 41 41 41 40 29 23 18 15
16 5 7 18 10 16 7 7 7 6 6 6 10 10 12 15 17 23 23 50 74 75 82 88 86 78 73 60 50 48 42 35 40 42 35 33 39 40 41 34 26 19 15 9
8 7 5 9 4 20 10 15 18 7 9 6 4 5 22 18 36 44 46 66 78 88 98 97 98 90 84 76 64 50 47 47 42 41 41 45 44 40 38 33 26 19 13 8
5 1 5 9 13 10 3 19 10 8 5 5 4 2 17 14 35 60 65 79 85 90 100 94 94 89 84 75 70 62 51 43 41 40 38 42 42 38 34 28 23 16 8 4
12 2 4 5 7 10 14 24 9 13 5 10 5 21 18 23 34 35 69 77 86 84 93 95 90 82 76 70 64 55 48 38 41 40 39 38 34 30 27 21 16 9 4 3
5 5 7 10 22 20 25 30 14 13 17 1 5 18 9 12 24 41 73 83 89 84 85 84 85 86 77 69 61 55 50 44 38 38 35 32 29 24 20 17 14 9 3 3
3 5 3 3 4 14 32 23 5 11 21 14 8 13 5 20 52 56 68 77 79 78 83 89 92 86 81 74 66 57 51 44 37 35 33 28 25 20 16 13 9 4 5 9
6 3 2 2 2 15 14 8 16 9 5 18 23 11 10 32 33 47 65 74 76 77 82 92 93 86 77 66 55 54 49 41 34 30 23 19 16 15 13 8 4 9 12 12
5 8 2 3 8 11 7 20 11 12 14 20 34 30 22 43 61 63 64 88 80 80 88 88 82 75 64 55 49 48 42 39 33 27 21 17 14 12 9 7 13 14 9 10
3 3 5 8 8 13 7 16 13 8 8 31 43 34 57 70 84 56 55 88 94 89 82 78 70 65 57 50 45 42 36 28 23 21 16 11 7 7 10 18 17 14 8 8
28 15 1 6 8 6 5 19 16 20 9 24 50 47 44 63 28 14 43 87 91 82 72 68 61 55 50 44 33 32 30 25 23 17 12 10 12 15 18 17 13 9 6 8
12 10 11 7 8 5 8 37 27 8 8 28 60 53 43 28 36 62 64 78 79 72 64 57 53 50 44 34 24 26 25 21 16 11 7 12 15 15 16 13 13 8 3 4
10 10 8 9 6 7 36 33 5 1 38 51 57 65 80 80 72 77 76 73 68 65 56 48 49 42 33 25 20 24 19 17 11 7 8 12 13 11 12 7 9 7 12 5
8 7 6 7 3 21 46 49 33 45 58 61 82 68 100 77 73 73 70 66 62 61 56 46 44 38 28 22 19 20 17 11 9 9 12 12 11 9 9 9 9 8 8 8
15 15 5 3 16 30 53 54 59 76 67 66 67 71 74 89 76 71 66 59 57 52 48 39 33 29 28 20 17 14 11 4 3 4 12 13 13 12 11 11 11 9 13 17
7 20 14 5 14 26 64 47 70 80 80 77 72 69 65 83 71 73 67 59 53 49 41 32 31 28 26 18 14 10 4 2 4 7 13 14 13 12 11 9 7 5 11 12
16 8 7 5 22 8 26 37 54 69 68 70 74 71 68 73 71 65 63 54 49 47 41 37 34 32 31 28 25 14 5 2 5 11 13 13 14 13 10 6 3 5 6 14
Wind_Direction_500mb
195 187 229 246 227 234 245 263 258 265 219 210 238 235 233 224 195 209 203 205 192 190 183 191 202 199 188 180 185 198 204 218 195 187 185 197 202 199 200 208 212 205 199 197
340 249 246 245 240 243 261 247 258 291 241 216 232 241 212 216 210 210 213 201 211 207 177 198 214 202 193 192 188 196 200 188 194 202 221 201 200 194 208 206 204 206 219 212
216 232 251 225 233 238 242 249 249 256 283 236 220 238 216 216 204 216 228 218 203 210 206 213 219 210 188 189 187 192 194 191 200 211 207 199 211 205 205 203 203 213 213 217
239 244 242 234 237 213 241 249 272 247 268 248 209 224 218 199 207 200 208 214 207 202 197 211 218 212 191 192 192 189 187 193 204 211 211 205 218 219 214 206 213 214 208 217
223 307 218 224 225 212 231 248 262 292 250 269 220 198 224 185 198 211 203 209 217 208 206 208 211 211 190 189 186 187 197 193 212 216 212 209 209 210 222 223 206 208 227 261
250 257 270 259 211 221 192 227 258 259 273 229 240 172 205 182 202 205 192 207 215 209 208 205 204 187 178 172 177 179 189 198 225 225 214 211 197 238 212 216 207 213 210 212
253 236 235 225 177 215 189 177 219 191 217 216 240 338 225 207 211 175 172 196 210 212 205 193 179 176 175 172 176 185 193 196 202 214 217 219 196 198 206 190 207 213 209 197
284 289 209 200 195 167 184 131 231 164 156 176 178 210 238 212 197 182 190 195 202 202 199 184 179 175 170 170 177 169 177 190 200 199 203 195 183 200 180 192 195 199 187 174
300 270 232 182 167 166 147 150 191 301 229 97 161 286 308 193 158 155 179 182 193 162 168 170 165 156 158 162 169 180 183 187 190 201 196 184 158 167 154 206 180 172 164 174
241 290 222 161 160 190 161 147 154 226 205 116 160 189 221 182 176 175 150 139 117 131 133 144 154 157 162 166 166 168 172 181 182 185 178 187 179 187 189 195 178 159 159 167
270 252 111 135 173 155 135 106 127 265 222 153 132 221 350 282 168 151 117 120 122 124 125 131 137 145 148 151 156 156 160 162 147 149 164 158 152 156 163 162 157 165 163 159
302 336 254 185 62 155 165 160 148 154 278 341 172 295 332 311 135 125 125 121 119 120 121 124 131 136 135 137 139 138 133 127 131 131 130 138 141 146 153 157 159 168 177 185
350 330 344 76 19 344 208 156 157 206 84 235 104 156 340 53 118 124 124 119 117 116 113 117 123 128 131 131 128 128 129 127 132 138 142 137 140 143 141 146 158 162 173 128
216 252 238 201 111 183 167 163 260 139 121 313 26 124 62 85 116 118 114 113 113 111 113 116 120 126 128 127 127 126 126 137 134 135 136 135 134 135 139 139 136 137 123 44
178 267 232 223 219 255 152 158 260 129 139 57 123 111 71 72 98 114 112 110 108 108 108 113 117 124 126 124 123 123 120 124 129 128 127 122 125 131 125 124 125 116 89 3
335 257 320 31 134 109 123 155 178 89 97 248 155 86 341 92 106 104 106 108 105 105 107 114 120 125 125 124 123 119 113 116 125 118 111 116 120 115 112 109 104 92 88 68
217 281 4 308 313 89 76 6 152 64 154 183 152 135 114 102 96 103 106 102 103 104 107 112 118 121 122 122 123 116 117 123 120 121 119 112 117 124 128 124 97 90 87 63
249 175 72 150 54 62 63 357 87 119 256 99 98 98 95 99 97 95 103 107 103 105 110 115 118 117 119 122 121 119 124 127 133 133 133 135 141 141 133 124 116 102 85 67
147 358 106 104 73 126 41 18 12 24 77 128 115 105 111 104 85 70 99 109 113 116 117 118 119 119 122 121 123 125 127 132 139 140 141 141 151 144 131 120 107 103 92 44
5 6 44 88 82 102 62 322 319 282 38 135 127 130 137 128 103 107 104 115 118 120 121 120 120 118 119 120 131 130 126 136 134 138 143 133 115 111 106 107 104 103 104 18
345 358 22 30 100 42 359 316 302 133 166 136 131 137 127 109 115 125 117 113 119 122 123 125 124 123 119 131 145 132 131 124 125 118 112 122 129 104 110 112 129 130 125 48
12 333 11 341 62 95 347 330 140 239 122 125 109 110 107 113 118 121 125 123 126 127 126 126 133 128 130 137 152 144 144 137 154 162 159 147 143 128 123 137 157 154 178 199
30 16 351 18 355 290 292 253 279 119 113 119 118 123 125 118 114 120 122 124 125 124 124 131 133 131 129 137 148 154 145 175 197 209 200 158 138 133 138 156 175 181 219 269
339 6 28 262 332 340 9 70 95 100 104 110 117 122 123 121 122 123 124 125 118 119 122 129 130 129 129 136 145 150 158 170 163 140 143 140 154 170 181 190 207 235 259 273
325 322 326 35 340 357 27 55 89 95 109 110 106 111 113 124 120 125 121 118 118 117 117 120 117 111 102 111 137 149 164 156 160 147 143 157 160 183 197 202 222 259 293 303
0 339 4 23 340 43 24 71 106 112 107 109 112 114 120 125 125 127 120 118 118 117 116 109 100 98 93 92 88 91 108 118 138 150 143 149 172 180 190 178 111 62 54 39
Wind_Speed_850mb
11 7 19 32 24 27 33 32 33 21 24 23 45 26 22 19 17 21 36 36 51 58 60 47 34 31 40 63 65 71 77 59 71 68 66 52 46 50 45 40 34 45 38 30
7 29 28 27 29 31 33 39 40 29 31 26 35 20 32 18 14 26 43 45 56 56 51 53 38 37 49 57 61 57 71 78 88 88 60 59 60 46 45 38 38 46 37 31
26 25 20 32 31 35 39 31 26 26 32 39 13 30 17 31 32 40 49 60 68 70 57 56 46 43 54 67 69 64 61 78 86 80 77 60 55 56 49 45 43 42 37 34
18 34 41 34 33 33 32 25 27 34 24 20 32 23 17 32 31 23 38 57 78 74 67 60 57 47 62 66 67 66 73 74 79 70 69 70 71 62 51 49 43 42 32 32
15 9 24 34 33 33 25 25 34 29 32 19 24 17 30 21 23 39 25 57 79 79 75 67 53 48 62 63 63 52 59 72 65 75 74 62 60 60 43 56 51 32 20 21
38 35 21 16 17 25 22 28 34 31 24 22 29 14 13 18 43 31 17 53 69 78 81 71 51 58 73 68 61 55 53 67 64 59 63 71 65 65 82 63 36 40 40 29
15 42 33 31 7 15 13 23 6 11 11 10 13 1 15 34 38 22 22 50 65 80 78 63 63 75 77 72 62 62 49 54 44 37 45 48 43 45 57 40 40 35 31 25
8 6 28 34 18 14 20 15 5 7 9 9 8 12 14 24 30 46 54 54 63 70 75 65 69 80 71 68 56 51 59 53 53 45 41 44 35 43 30 27 32 30 19 14
7 11 13 25 22 13 11 16 9 8 7 8 13 10 11 12 17 19 32 53 62 52 67 77 81 83 73 71 58 56 58 48 40 39 31 27 40 39 28 35 32 27 20 14
6 13 6 25 23 19 12 25 8 7 6 7 10 8 8 17 20 27 20 25 54 78 74 84 91 85 74 65 54 46 38 39 35 31 34 33 41 41 41 40 29 23 18 15
16 5 7 18 10 16 7 7 7 6 6 6 10 10 12 15 17 23 23 50 74 75 82 88 86 78 73 60 50 48 42 35 40 42 35 33 39 40 41 34 26 19 15 9
8 7 5 9 4 20 10 15 18 7 9 6 4 5 22 18 36 44 46 66 78 88 98 97 98 90 84 76 64 50 47 47 42 41 41 45 44 40 38 33 26 19 13 8
5 1 5 9 13 10 3 19 10 8 5 5 4 2 17 14 35 60 65 79 85 90 100 94 94 89 84 75 70 62 51 43 41 40 38 42 42 38 34 28 23 16 8 4
12 2 4 5 7 10 14 24 9 13 5 10 5 21 18 23 34 35 69 77 86 84 93 95 90 82 76 70 64 55 48 38 41 40 39 38 34 30 27 21 16 9 4 3
5 5 7 10 22 20 25 30 14 13 17 1 5 18 9 12 24 41 73 83 89 84 85 84 85 86 77 69 61 55 50 44 38 38 35 32 29 24 20 17 14 9 3 3
3 5 3 3 4 14 32 23 5 11 21 14 8 13 5 20 52 56 68 77 79 78 83 89 92 86 81 74 66 57 51 44 37 35 33 28 25 20 16 13 9 4 5 9
6 3 2 2 2 15 14 8 16 9 5 18 23 11 10 32 33 47 65 74 76 77 82 92 93 86 77 66 55 54 49 41 34 30 23 19 16 15 13 8 4 9 12 12
5 8 2 3 8 11 7 20 11 12 14 20 34 30 22 43 61 63 64 88 80 80 88 88 82 75 64 55 49 48 42 39 33 27 21 17 14 12 9 7 13 14 9 10
3 3 5 8 8 13 7 16 13 8 8 31 43 34 57 70 84 56 55 88 94 89 82 78 70 65 57 50 45 42 36 28 23 21 16 11 7 7 10 18 17 14 8 8
28 15 1 6 8 6 5 19 16 20 9 24 50 47 44 63 28 14 43 87 91 82 72 68 61 55 50 44 33 32 30 25 23 17 12 10 12 15 18 17 13 9 6 8
12 10 11 7 8 5 8 37 27 8 8 28 60 53 43 28 36 62 64 78 79 72 64 57 53 50 44 34 24 26 25 21 16 11 7 12 15 15 16 13 13 8 3 4
10 10 8 9 6 7 36 33 5 1 38 51 57 65 80 80 72 77 76 73 68 65 56 48 49 42 33 25 20 24 19 17 11 7 8 12 13 11 12 7 9 7 12 5
8 7 6 7 3 21 46 49 33 45 58 61 82 68 100 77 73 73 70 66 62 61 56 46 44 38 28 22 19 20 17 11 9 9 12 12 11 9 9 9 9 8 8 8
15 15 5 3 16 30 53 54 59 76 67 66 67 71 74 89 76 71 66 59 57 52 48 39 33 29 28 20 17 14 11 4 3 4 12 13 13 12 11 11 11 9 13 17
7 20 14 5 14 26 64 47 70 80 80 77 72 69 65 83 71 73 67 59 53 49 41 32 31 28 26 18 14 10 4 2 4 7 13 14 13 12 11 9 7 5 11 12
16 8 7 5 22 8 26 37 54 69 68 70 74 71 68 73 71 65 63 54 49 47 41 37 34 32 31 28 25 14 5 2 5 11 13 13 14 13 10 6 3 5 6 14
Wind_Direction_850mb
195 187 229 246 227 234 245 263 258 265 219 210 238 235 233 224 195 209 203 205 192 190 183 191 202 199 188 180 185 198 204 218 195 187 185 197 202 199 200 208 212 205 199 197
340 249 246 245 240 243 261 247 258 291 241 216 232 241 212 216 210 210 213 201 211 207 177 198 214 202 193 192 188 196 200 188 194 202 221 201 200 194 208 206 204 206 219 212
216 232 251 225 233 238 242 249 249 256 283 236 220 238 216 216 204 216 228 218 203 210 206 213 219 210 188 189 187 192 194 191 200 211 207 199 211 205 205 203 203 213 213 217
239 244 242 234 237 213 241 249 272 247 268 248 209 224 218 199 207 200 208 214 207 202 197 211 218 212 191 192 192 189 187 193 204 211 211 205 218 219 214 206 213 214 208 217
223 307 218 224 225 212 231 248 262 292 250 269 220 198 224 185 198 211 203 209 217 208 206 208 211 211 190 189 186 187 197 193 212 216 212 209 209 210 222 223 206 208 227 261
250 257 270 259 211 221 192 227 258 259 273 229 240 172 205 182 202 205 192 207 215 209 208 205 204 187 178 172 177 179 189 198 225 225 214 211 197 238 212 216 207 213 210 212
253 236 235 225 177 215 189 177 219 191 217 216 240 338 225 207 211 175 172 196 210 212 205 193 179 176 175 172 176 185 193 196 202 214 217 219 196 198 206 190 207 213 209 197
284 289 209 200 195 167 184 131 231 164 156 176 178 210 238 212 197 182 190 195 202 202 199 184 179 175 170 170 177 169 177 190 200 199 203 195 183 200 180 192 195 199 187 174
300 270 232 182 167 166 147 150 191 301 229 97 161 286 308 193 158 155 179 182 193 162 168 170 165 156 158 162 169 180 183 187 190 201 196 184 158 167 154 206 180 172 164 174
241 290 222 161 160 190 161 147 154 226 205 116 160 189 221 182 176 175 150 139 117 131 133 144 154 157 162 166 166 168 172 181 182 185 178 187 179 187 189 195 178 159 159 167
270 252 111 135 173 155 135 106 127 265 222 153 132 221 350 282 168 151 117 120 122 124 125 131 137 145 148 151 156 156 160 162 147 149 164 158 152 156 163 162 157 165 163 159
302 336 254 185 62 155 165 160 148 154 278 341 172 295 332 311 135 125 125 121 119 120 121 124 131 136 135 137 139 138 133 127 131 131 130 138 141 146 153 157 159 168 177 185
350 330 344 76 19 344 208 156 157 206 84 235 104 156 340 53 118 124 124 119 117 116 113 117 123 128 131 131 128 128 129 127 132 138 142 137 140 143 141 146 158 162 173 128
216 252 238 201 111 183 167 163 260 139 121 313 26 124 62 85 116 118 114 113 113 111 113 116 120 126 128 127 127 126 126 137 134 135 136 135 134 135 139 139 136 137 123 44
178 267 232 223 219 255 152 158 260 129 139 57 123 111 71 72 98 114 112 110 108 108 108 113 117 124 126 124 123 123 120 124 129 128 127 122 125 131 125 124 125 116 89 3
335 257 320 31 134 109 123 155 178 89 97 248 155 86 341 92 106 104 106 108 105 105 107 114 120 125 125 124 123 119 113 116 125 118 111 116 120 115 112 109 104 92 88 68
217 281 4 308 313 89 76 6 152 64 154 183 152 135 114 102 96 103 106 102 103 104 107 112 118 121 122 122 123 116 117 123 120 121 119 112 117 124 128 124 97 90 87 63
249 175 72 150 54 62 63 357 87 119 256 99 98 98 95 99 97 95 103 107 103 105 110 115 118 117 119 122 121 119 124 127 133 133 133 135 141 141 133 124 116 102 85 67
147 358 106 104 73 126 41 18 12 24 77 128 115 105 111 104 85 70 99 109 113 116 117 118 119 119 122 121 123 125 127 132 139 140 141 141 151 144 131 120 107 103 92 44
5 6 44 88 82 102 62 322 319 282 38 135 127 130 137 128 103 107 104 115 118 120 121 120 120 118 119 120 131 130 126 136 134 138 143 133 115 111 106 107 104 103 104 18
345 358 22 30 100 42 359 316 302 133 166 136 131 137 127 109 115 125 117 113 119 122 123 125 124 123 119 131 145 132 131 124 125 118 112 122 129 104 110 112 129 130 125 48
12 333 11 341 62 95 347 330 140 239 122 125 109 110 107 113 118 121 125 123 126 127 126 126 133 128 130 137 152 144 144 137 154 162 159 147 143 128 123 137 157 154 178 199
30 16 351 18 355 290 292 253 279 119 113 119 118 123 125 118 114 120 122 124 125 124 124 131 133 131 129 137 148 154 145 175 197 209 200 158 138 133 138 156 175 181 219 269
339 6 28 262 332 340 9 70 95 100 104 110 117 122 123 121 122 123 124 125 118 119 122 129 130 129 129 136 145 150 158 170 163 140 143 140 154 170 181 190 207 235 259 273
325 322 326 35 340 357 27 55 89 95 109 110 106 111 113 124 120 125 121 118 118 117 117 120 117 111 102 111 137 149 164 156 160 147 143 157 160 183 197 202 222 259 293 303
0 339 4 23 340 43 24 71 106 112 107 109 112 114 120 125 125 127 120 118 118 117 116 109 100 98 93 92 88 91 108 118 138 150 143 149 172 180 190 178 111 62 54 39